Location: Franzen
(48.6167°N, 15.3833°E)
Time: 06:31:40
(UTC+00:00)

Transit 2A - Pass Details

Date: 12 August 2021
Orbit: 594 x 964 km, 66.7° (Epoch: 24 September)

Event Time Altitude Azimuth Distance (km) Brightness Sun altitude
Rises 05:52:57 0° 293° (WNW) 2,996 8.5 19.2°
Reaches altitude 10° 05:56:52 10° 326° (NW) 2,170 8.1 19.9°
Maximum altitude 05:58:37 12° 347° (NNW) 2,096 8.2 20.2°
Drops below altitude 10° 06:00:24 10° 8° (N) 2,254 8.6 20.5°
Sets 06:04:43 0° 40° (NE) 3,289 9.8 21.2°
